Location: Koszewko
(53.2876°N, 14.9061°E)
Time: 01:49:08
(UTC+00:00)

Cosmos 1943 Rocket - Pass Details

Date: 03 March 2021
Orbit: 811 x 844 km, 71.0° (Epoch: 11 April)

Event Time Altitude Azimuth Distance (km) Brightness Sun altitude
Rises 20:42:14 0° 328° (NNW) 3,417 6.3 -34.2°
Reaches altitude 10° 20:44:42 10° 330° (NNW) 2,478 5.4 -34.5°
Enters shadow 20:48:14 39° 339° (NNW) 1,249 3.3 -34.8°
